Time,TemperatureF,DewpointF,PressureIn,WindDirection,WindDirectionDegrees,WindSpeedMPH,WindSpeedGustMPH,Humidity,HourlyPrecipIn,Conditions,Clouds,dailyrainin,SoftwareType,DateUTC
2013-01-08 00:02:00,61.0,16.0,30.11,NE,51,19.0,29.0,17,0.00,,,0.00,,2013-01-08 08:02:00,
2013-01-08 00:22:00,61.0,16.0,30.11,NE,40,19.0,29.0,17,0.00,,,0.00,,2013-01-08 08:22:00,
2013-01-08 00:32:00,61.0,14.0,30.11,NE,39,20.0,29.0,16,0.00,,,0.00,,2013-01-08 08:32:00,
2013-01-08 00:52:00,61.0,16.0,30.10,NE,46,24.0,35.0,17,0.00,,,0.00,,2013-01-08 08:52:00,
2013-01-08 01:02:00,61.0,16.0,30.10,ENE,66,19.0,29.0,17,0.00,,,0.00,,2013-01-08 09:02:00,
2013-01-08 01:22:00,61.0,16.0,30.10,NE,49,23.0,29.0,17,0.00,,,0.00,,2013-01-08 09:22:00,
2013-01-08 01:32:00,61.0,16.0,30.10,NE,47,20.0,30.0,17,0.00,,,0.00,,2013-01-08 09:32:00,
2013-01-08 01:52:00,61.0,16.0,30.09,NE,42,20.0,30.0,17,0.00,,,0.00,,2013-01-08 09:52:00,
2013-01-08 02:02:00,61.0,17.0,30.09,NNE,28,14.0,28.0,18,0.00,,,0.00,,2013-01-08 10:02:00,
2013-01-08 02:22:00,61.0,18.0,30.10,ENE,76,12.0,20.0,19,0.00,,,0.00,,2013-01-08 10:22:00,
2013-01-08 02:32:00,61.0,18.0,30.10,East,84,12.0,21.0,19,0.00,,,0.00,,2013-01-08 10:32:00,
2013-01-08 02:42:00,61.0,18.0,30.10,East,84,12.0,21.0,19,0.00,,,0.00,,2013-01-08 10:42:00,
2013-01-08 02:52:00,61.0,20.0,30.10,NE,51,8.0,19.0,20,0.00,,,0.00,,2013-01-08 10:52:00,
2013-01-08 03:02:00,62.0,20.0,30.10,NE,35,18.0,24.0,20,0.00,,,0.00,,2013-01-08 11:02:00,
2013-01-08 03:22:00,62.0,22.0,30.09,NE,41,20.0,31.0,21,0.00,,,0.00,,2013-01-08 11:22:00,
2013-01-08 03:32:00,63.0,24.0,30.09,NE,40,23.0,35.0,22,0.00,,,0.00,,2013-01-08 11:32:00,
2013-01-08 03:42:00,63.0,24.0,30.09,NE,40,23.0,35.0,22,0.00,,,0.00,,2013-01-08 11:42:00,
2013-01-08 03:52:00,63.0,26.0,30.09,NE,35,21.0,27.0,24,0.00,,,0.00,,2013-01-08 11:52:00,
2013-01-08 04:02:00,63.0,26.0,30.09,NE,35,21.0,27.0,24,0.00,,,0.00,,2013-01-08 12:02:00,
2013-01-08 04:12:00,63.0,26.0,30.09,NE,35,21.0,27.0,24,0.00,,,0.00,,2013-01-08 12:12:00,
2013-01-08 04:22:00,62.0,25.0,30.09,NE,37,21.0,27.0,24,0.00,,,0.00,,2013-01-08 12:22:00,
2013-01-08 04:32:00,62.0,25.0,30.09,NE,42,19.0,30.0,24,0.00,,,0.00,,2013-01-08 12:32:00,
2013-01-08 04:42:00,62.0,25.0,30.09,NE,42,19.0,30.0,24,0.00,,,0.00,,2013-01-08 12:42:00,
2013-01-08 04:52:00,61.0,24.0,30.09,NNE,15,18.0,32.0,24,0.00,,,0.00,,2013-01-08 12:52:00,
2013-01-08 05:02:00,62.0,23.0,30.09,North,360,18.0,28.0,22,0.00,,,0.00,,2013-01-08 13:02:00,
2013-01-08 05:22:00,63.0,28.0,30.09,NNE,30,23.0,35.0,26,0.00,,,0.00,,2013-01-08 13:22:00,
2013-01-08 05:32:00,63.0,29.0,30.08,NE,46,27.0,37.0,27,0.00,,,0.00,,2013-01-08 13:32:00,
2013-01-08 05:52:00,62.0,28.0,30.08,NE,34,27.0,34.0,27,0.00,,,0.00,,2013-01-08 13:52:00,
2013-01-08 06:02:00,62.0,28.0,30.08,NE,41,19.0,31.0,27,0.00,,,0.00,,2013-01-08 14:02:00,
2013-01-08 06:22:00,62.0,29.0,30.09,NE,37,18.0,25.0,28,0.00,,,0.00,,2013-01-08 14:22:00,
2013-01-08 06:32:00,62.0,29.0,30.10,NNE,32,18.0,25.0,29,0.00,,,0.00,,2013-01-08 14:32:00,
2013-01-08 06:52:00,62.0,30.0,30.10,ENE,61,20.0,27.0,30,0.00,,,0.00,,2013-01-08 14:52:00,
2013-01-08 07:02:00,62.0,30.0,30.10,NNE,19,17.0,26.0,30,0.00,,,0.00,,2013-01-08 15:02:00,
2013-01-08 07:22:00,62.0,29.0,30.11,NE,49,16.0,26.0,29,0.00,,,0.00,,2013-01-08 15:22:00,
2013-01-08 07:33:00,62.0,29.0,30.11,NNE,29,19.0,25.0,29,0.00,,,0.00,,2013-01-08 15:33:00,
2013-01-08 07:52:00,62.0,29.0,30.12,NE,36,21.0,28.0,29,0.00,,,0.00,,2013-01-08 15:52:00,
2013-01-08 08:02:00,63.0,30.0,30.12,NE,54,17.0,29.0,29,0.00,,,0.00,,2013-01-08 16:02:00,
2013-01-08 08:22:00,63.0,30.0,30.12,NE,36,17.0,28.0,29,0.00,,,0.00,,2013-01-08 16:22:00,
2013-01-08 08:33:00,63.0,30.0,30.12,NE,36,17.0,28.0,29,0.00,,,0.00,,2013-01-08 16:33:00,
2013-01-08 08:52:00,65.0,32.0,30.13,NE,49,19.0,26.0,29,0.00,,,0.00,,2013-01-08 16:52:00,
2013-01-08 09:02:00,65.0,32.0,30.13,NE,56,15.0,25.0,29,0.00,,,0.00,,2013-01-08 17:02:00,
2013-01-08 09:22:00,66.0,32.0,30.14,NE,51,16.0,23.0,28,0.00,,,0.00,,2013-01-08 17:22:00,
2013-01-08 09:33:00,65.0,31.0,30.14,ENE,71,21.0,27.0,28,0.00,,,0.00,,2013-01-08 17:33:00,
2013-01-08 09:53:00,66.0,33.0,30.15,NE,34,19.0,31.0,29,0.00,,,0.00,,2013-01-08 17:53:00,
2013-01-08 10:03:00,66.0,33.0,30.14,NE,47,20.0,27.0,29,0.00,,,0.00,,2013-01-08 18:03:00,
2013-01-08 10:22:00,66.0,33.0,30.14,NNE,22,18.0,28.0,29,0.00,,,0.00,,2013-01-08 18:22:00,
2013-01-08 10:33:00,66.0,33.0,30.14,NE,44,18.0,25.0,29,0.00,,,0.00,,2013-01-08 18:33:00,
2013-01-08 10:43:00,66.0,33.0,30.14,NE,44,18.0,25.0,29,0.00,,,0.00,,2013-01-08 18:43:00,
2013-01-08 10:52:00,67.0,33.0,30.14,NE,40,13.0,21.0,28,0.00,,,0.00,,2013-01-08 18:52:00,
2013-01-08 11:02:00,68.0,34.0,30.14,ENE,66,8.0,14.0,28,0.00,,,0.00,,2013-01-08 19:02:00,
2013-01-08 11:12:00,68.0,34.0,30.14,ENE,66,8.0,14.0,28,0.00,,,0.00,,2013-01-08 19:12:00,
2013-01-08 11:22:00,65.0,37.0,30.14,WNW,288,4.0,8.0,36,0.00,,,0.00,,2013-01-08 19:22:00,
2013-01-08 11:32:00,65.0,37.0,30.13,West,278,2.0,6.0,36,0.00,,,0.00,,2013-01-08 19:32:00,
2013-01-08 11:42:00,65.0,37.0,30.13,West,278,2.0,6.0,36,0.00,,,0.00,,2013-01-08 19:42:00,
2013-01-08 11:52:00,67.0,35.0,30.12,East,101,4.0,7.0,31,0.00,,,0.00,,2013-01-08 19:52:00,
2013-01-08 12:02:00,67.0,38.0,30.12,West,259,7.0,11.0,34,0.00,,,0.00,,2013-01-08 20:02:00,
2013-01-08 12:12:00,67.0,38.0,30.12,West,259,7.0,11.0,34,0.00,,,0.00,,2013-01-08 20:12:00,
2013-01-08 12:22:00,66.0,38.0,30.11,WSW,247,5.0,9.0,36,0.00,,,0.00,,2013-01-08 20:22:00,
2013-01-08 12:33:00,67.0,34.0,30.11,West,265,2.0,7.0,29,0.00,,,0.00,,2013-01-08 20:33:00,
2013-01-08 12:43:00,67.0,34.0,30.11,West,265,2.0,7.0,29,0.00,,,0.00,,2013-01-08 20:43:00,
2013-01-08 12:53:00,68.0,36.0,30.10,NNE,32,0.0,7.0,31,0.00,,,0.00,,2013-01-08 20:53:00,
2013-01-08 13:02:00,68.0,35.0,30.10,NE,47,3.0,13.0,29,0.00,,,0.00,,2013-01-08 21:02:00,
2013-01-08 13:12:00,68.0,35.0,30.10,NE,47,3.0,13.0,29,0.00,,,0.00,,2013-01-08 21:12:00,
2013-01-08 13:22:00,69.0,34.0,30.09,NE,35,9.0,14.0,27,0.00,,,0.00,,2013-01-08 21:22:00,
2013-01-08 13:33:00,69.0,35.0,30.09,West,273,4.0,9.0,29,0.00,,,0.00,,2013-01-08 21:33:00,
2013-01-08 13:42:00,69.0,35.0,30.09,West,273,4.0,9.0,29,0.00,,,0.00,,2013-01-08 21:42:00,
2013-01-08 13:52:00,70.0,34.0,30.09,NE,54,0.0,8.0,27,0.00,,,0.00,,2013-01-08 21:52:00,
2013-01-08 14:02:00,71.0,35.0,30.09,West,280,2.0,7.0,27,0.00,,,0.00,,2013-01-08 22:02:00,
2013-01-08 14:12:00,71.0,35.0,30.09,West,280,2.0,7.0,27,0.00,,,0.00,,2013-01-08 22:12:00,
2013-01-08 14:22:00,65.0,36.0,30.09,SW,236,9.0,15.0,34,0.00,,,0.00,,2013-01-08 22:22:00,
2013-01-08 14:32:00,65.0,37.0,30.08,West,276,4.0,10.0,35,0.00,,,0.00,,2013-01-08 22:32:00,
2013-01-08 14:42:00,65.0,37.0,30.08,West,276,4.0,10.0,35,0.00,,,0.00,,2013-01-08 22:42:00,
2013-01-08 14:52:00,65.0,39.0,30.08,WNW,287,6.0,9.0,38,0.00,,,0.00,,2013-01-08 22:52:00,
2013-01-08 15:02:00,64.0,37.0,30.08,WNW,286,7.0,9.0,36,0.00,,,0.00,,2013-01-08 23:02:00,
2013-01-08 15:12:00,64.0,37.0,30.08,WNW,286,7.0,9.0,36,0.00,,,0.00,,2013-01-08 23:12:00,
2013-01-08 15:22:00,65.0,39.0,30.08,West,281,4.0,10.0,38,0.00,,,0.00,,2013-01-08 23:22:00,
2013-01-08 15:32:00,66.0,40.0,30.09,WNW,297,9.0,15.0,39,0.00,,,0.00,,2013-01-08 23:32:00,
2013-01-08 15:42:00,66.0,40.0,30.09,WNW,297,9.0,15.0,39,0.00,,,0.00,,2013-01-08 23:42:00,
2013-01-08 15:52:00,66.0,40.0,30.09,NW,317,5.0,10.0,39,0.00,,,0.00,,2013-01-08 23:52:00,
2013-01-08 16:02:00,68.0,36.0,30.09,NNE,28,8.0,11.0,31,0.00,,,0.00,,2013-01-09 00:02:00,
2013-01-08 16:12:00,68.0,36.0,30.09,NNE,28,8.0,11.0,31,0.00,,,0.00,,2013-01-09 00:12:00,
2013-01-08 16:22:00,69.0,40.0,30.09,West,272,2.0,9.0,35,0.00,,,0.00,,2013-01-09 00:22:00,
2013-01-08 16:32:00,68.0,36.0,30.09,ENE,57,1.0,11.0,31,0.00,,,0.00,,2013-01-09 00:32:00,
2013-01-08 16:42:00,68.0,36.0,30.09,ENE,57,1.0,11.0,31,0.00,,,0.00,,2013-01-09 00:42:00,
2013-01-08 16:52:00,67.0,35.0,30.09,NE,49,3.0,10.0,30,0.00,,,0.00,,2013-01-09 00:52:00,
2013-01-08 17:02:00,66.0,39.0,30.09,West,266,4.0,7.0,37,0.00,,,0.00,,2013-01-09 01:02:00,
2013-01-08 17:12:00,66.0,39.0,30.09,West,266,4.0,7.0,37,0.00,,,0.00,,2013-01-09 01:12:00,
2013-01-08 17:22:00,67.0,32.0,30.09,North,355,15.0,23.0,27,0.00,,,0.00,,2013-01-09 01:22:00,
2013-01-08 17:32:00,67.0,30.0,30.09,NNW,348,16.0,22.0,25,0.00,,,0.00,,2013-01-09 01:32:00,
2013-01-08 17:42:00,67.0,30.0,30.09,NNW,348,16.0,22.0,25,0.00,,,0.00,,2013-01-09 01:42:00,
2013-01-08 17:52:00,66.0,33.0,30.10,SSW,201,2.0,14.0,29,0.00,,,0.00,,2013-01-09 01:52:00,
2013-01-08 18:02:00,65.0,36.0,30.10,SSW,198,2.0,6.0,34,0.00,,,0.00,,2013-01-09 02:02:00,
2013-01-08 18:12:00,65.0,36.0,30.10,SSW,198,2.0,6.0,34,0.00,,,0.00,,2013-01-09 02:12:00,
2013-01-08 18:22:00,65.0,33.0,30.10,ESE,123,2.0,9.0,30,0.00,,,0.00,,2013-01-09 02:22:00,
2013-01-08 18:32:00,64.0,32.0,30.10,NW,323,2.0,8.0,30,0.00,,,0.00,,2013-01-09 02:32:00,
2013-01-08 18:52:00,63.0,35.0,30.09,NNE,16,2.0,9.0,35,0.00,,,0.00,,2013-01-09 02:52:00,
2013-01-08 19:02:00,64.0,31.0,30.10,SE,135,2.0,6.0,29,0.00,,,0.00,,2013-01-09 03:02:00,
2013-01-08 19:32:00,64.0,31.0,30.10,SE,135,2.0,6.0,29,0.00,,,0.00,,2013-01-09 03:32:00,
2013-01-08 19:53:00,63.0,31.0,30.10,ESE,105,6.0,9.0,30,0.00,,,0.00,,2013-01-09 03:53:00,
2013-01-08 20:02:00,62.0,31.0,30.10,ENE,76,12.0,14.0,31,0.00,,,0.00,,2013-01-09 04:02:00,
2013-01-08 20:22:00,62.0,32.0,30.11,East,92,12.0,15.0,32,0.00,,,0.00,,2013-01-09 04:22:00,
2013-01-08 20:32:00,62.0,32.0,30.11,East,92,12.0,15.0,32,0.00,,,0.00,,2013-01-09 04:32:00,
2013-01-08 20:52:00,61.0,32.0,30.11,ENE,76,7.0,14.0,33,0.00,,,0.00,,2013-01-09 04:52:00,
2013-01-08 21:03:00,61.0,31.0,30.10,ESE,105,8.0,11.0,32,0.00,,,0.00,,2013-01-09 05:03:00,
2013-01-08 21:22:00,62.0,31.0,30.11,NE,51,8.0,16.0,31,0.00,,,0.00,,2013-01-09 05:22:00,
2013-01-08 21:33:00,62.0,32.0,30.11,East,96,4.0,10.0,32,0.00,,,0.00,,2013-01-09 05:33:00,
2013-01-08 21:52:00,62.0,32.0,30.11,East,82,0.0,6.0,32,0.00,,,0.00,,2013-01-09 05:52:00,
2013-01-08 22:02:00,62.0,31.0,30.12,SE,141,0.0,7.0,31,0.00,,,0.00,,2013-01-09 06:02:00,
2013-01-08 22:22:00,64.0,32.0,30.12,ENE,72,9.0,14.0,30,0.00,,,0.00,,2013-01-09 06:22:00,
2013-01-08 22:32:00,63.0,31.0,30.12,NE,55,2.0,11.0,30,0.00,,,0.00,,2013-01-09 06:32:00,
2013-01-08 22:52:00,64.0,31.0,30.13,ENE,60,3.0,10.0,29,0.00,,,0.00,,2013-01-09 06:52:00,
2013-01-08 23:32:00,64.0,31.0,30.13,NE,41,3.0,10.0,29,0.00,,,0.00,,2013-01-09 07:32:00,